Regional Weather Roundup
Issued by NWS Northern Indiana

Home | Current Version | Previous Version | Text Only | Print | Product List | Glossary On
Versions: 1 2 3 4 5 6 7 8 9 10 11 12 13 14 15 16 17 18 19 20 21 22 23 24 25 26 27 28 29 30 31 32 33 34 35 36 37 38 39 40 41 42 43 44 45 46 47 48 49 50
000
ASUS43 KIWX 301000
RWRIWX

KIWX WEATHER ROUNDUP
NATIONAL WEATHER SERVICE NORTHERN INDIANA
600 AM EDT TUE SEP 30 2014

NOTE: "FAIR" INDICATES FEW OR NO CLOUDS BELOW 12,000 FEET WITH NO
SIGNIFICANT WEATHER AND/OR OBSTRUCTIONS TO VISIBILITY.

* THESE STATIONS ARE NOT UNDER NWS QUALITY CONTROL. THEY ALSO MAY NOT
  REPORT WEATHER SUCH AS PRECIPITATION OR FOG.

INZ001>027-301100-
NORTHERN INDIANA

CITY           SKY/WX    TMP DP  RH WIND       PRES   REMARKS
GARY*          CLOUDY    55  48  76 N17       30.03S
SOUTH BEND     NOT AVBL
ANGOLA*        CLOUDY    54  52  94 N8        29.95S
FORT WAYNE     CLOUDY    59  56  89 NW12      29.94R
PERU/GRISSOM   CLOUDY    57  57 100 N14       29.97R

$$
INZ028>050-301100-
CENTRAL INDIANA

CITY           SKY/WX    TMP DP  RH WIND       PRES   REMARKS
LAFAYETTE      CLOUDY    56  52  86 N10       29.98R
KOKOMO*        CLOUDY    57  52  82 N13       29.97R
MUNCIE*        MOCLDY    57  55  93 NW6       29.94R FOG
INDIANAPOLIS   FOG       57  55  93 N9        29.94R VSB 1

$$
MIZ043>046-050>051-056>058-064>065-071>073-077>080-301100-
SOUTHWEST LOWER MICHIGAN

CITY           SKY/WX    TMP DP  RH WIND       PRES   REMARKS
BATTLE CREEK   LGT RAIN  48  46  93 N9        29.98S FOG
COLDWATER*     CLOUDY    51  50  95 N8        29.97R FOG
HILLSDALE*     CLOUDY    51  51 100 N10       29.94R FOG
GRAND RAPIDS   CLOUDY    49  48  97 NW10      30.00S
KALAMAZOO      CLOUDY    49  45  86 N14       30.00R
STURGIS*       CLOUDY    48  48 100 N9G16     29.97R
THREE RIVERS*  CLOUDY    49  47  93 N7        29.99S

$$
OHZ001>008-015>018-024>025-301100-
NORTHWEST OHIO

CITY           SKY/WX    TMP DP  RH WIND       PRES   REMARKS
DEFIANCE       CLOUDY    60  56  86 NW13      29.93R
FINDLAY        CLOUDY    59  55  87 W3        29.89R
TOLEDO EXPRESS CLOUDY    56  54  93 N8        29.90S
TOLEDO METCALF CLOUDY    58  54  86 N8        29.91R
LIMA           MOCLDY    59  54  83 W7        29.91R

$$
AND FOR LAKE MICHIGAN COASTAL AND OPEN LAKE BUOY OBSERVATIONS

STATION/POSITION TEMP    WIND        PRES    VSBY  WAVE
                 AIR SEA DIR/SP/G                  HT/PER
                 (F)     (DEG/KT/KT) (MB)    (MI)  (FT/S)
CALUMET HARBOR    54     350/ 13/ 19 1015.8S
MICHIGAN CITY     54     350/ 22/ 27   N/A
SAINT JOSEPH      54     350/ 12/ 20 1016.3F
SOUTH LAKE BUOY   53 61  350/ 19/ 23 1016.8S         7/ 8
4 MI NW BRIDGMAN  54 63  360/ 17/ 23   N/A           6/ 2
MICHIGAN CITY     55 65   10/ 16/ 23   N/A           9/ 2

$$
&&


USA.gov is the U.S. government's official web portal to all federal, state and local government web resources and services.